[[{"header":{"parameterUnit":"m.s-1","parameterCategory":1,"la1":30.2991,"la2":30.254,"lo1":-89.0895,"lo2":-89.0444,"dy":0.0017,"dx":0.0017,"nx":28,"ny":28,"refTime":"2025-12-15T09:00:00:Z","depth":0,"parameterNumber":2,"parameterNumberName":"U-component_of_WINDS"},"data":[0,0,0,0,0,0,0,0,0,0,0,0,0,0,0,0,0,0,0,0,0,0,0,0,0,0,0,0,0,0,0,0,0,0,0,0,0,0,0,0,0,0,0,0,0,0,0,0,0,0,0,0,0,0,0,0,0,0,-2.3436,-2.3437,0,-2.349,-2.349,-2.3491,-2.3421,-2.3419,-2.3416,-2.3414,-2.3468,-2.3472,-2.3475,0,0,0,0,0,0,0,0,0,0,0,0,0,-2.3273,-2.3276,-2.3436,-2.3437,-2.3437,-2.349,-2.349,-2.3491,-2.3422,-2.3419,-2.3416,-2.3413,-2.3467,-2.3471,-2.3476,0,0,0,0,0,0,0,0,0,0,0,0,0,-2.3337,-2.3277,-2.3436,-2.3409,-2.3407,-2.3489,-2.349,-2.3491,-2.3422,-2.3419,-2.3415,-2.3411,-2.3465,-2.3471,-2.3476,-2.3587,0,0,-2.3494,-2.3496,0,0,0,0,0,0,0,0,-2.3333,-2.3343,-2.3412,-2.3411,-2.3409,-2.3445,-2.3452,-2.3523,-2.3423,-2.3417,-2.3414,-2.3409,-2.3463,-2.3469,-2.3487,-2.359,-2.3592,-2.3494,-2.3498,-2.35,-2.3502,0,0,0,0,0,0,0,-2.3329,-2.334,-2.3457,-2.3413,-2.3411,-2.3394,-2.3399,-2.3466,-2.3461,-2.3417,-2.3412,-2.3419,-2.3462,-2.3482,-2.3488,-2.3593,-2.3494,-2.3499,-2.3503,-2.3505,-2.3788,-2.3792,0,0,0,0,0,0,-2.3328,-2.3337,-2.3455,-2.3459,-2.3361,-2.34,-2.3406,-2.3437,-2.346,-2.3459,-2.3422,-2.3416,-2.3474,-2.3482,-2.349,-2.362,-2.35,-2.3506,-2.3509,-2.3784,-2.3789,-2.3794,0,0,0,0,0,0,-2.3324,-2.3339,-2.3453,-2.3396,-2.341,-2.3407,-2.3443,-2.344,-2.346,-2.3464,-2.3462,-2.3444,-2.3471,-2.3482,-2.3563,-2.3621,-2.3508,-2.3513,-2.3779,-2.3786,-2.3791,-2.3882,0,0,0,0,0,0,-2.332,-2.3338,-2.338,-2.3398,-2.3413,-2.3527,-2.3447,-2.3444,-2.347,-2.3462,-2.3484,-2.3484,-2.3469,-2.3555,-2.3569,-2.3627,-2.3518,-2.3774,-2.3782,-2.3789,-2.3874,-2.389,-2.3905,0,0,0,0,0,-2.3314,-2.3404,-2.3383,-2.3398,-2.3466,-2.353,-2.3539,-2.352,-2.3475,-2.3518,-2.352,-2.3483,-2.3613,-2.3564,-2.3579,-2.3639,-2.377,-2.378,-2.3789,-2.3867,-2.3887,-2.3904,0,0,0,0,0,0,-2.3393,-2.3406,-2.3382,-2.348,-2.3505,-2.3518,-2.3571,-2.3543,-2.358,-2.3571,-2.3546,-2.3552,-2.3639,-2.3647,-2.3593,-2.3747,-2.3684,-2.3697,-2.3738,-2.3758,-2.3773,-2.3768,-2.3522,0,0,0,0,0,-2.3421,-2.3473,-2.3481,-2.3567,-2.358,-2.3574,-2.3601,-2.3585,-2.3609,-2.3619,-2.3627,-2.3651,-2.3697,-2.3728,-2.3771,-2.3875,-2.3878,-2.3924,-2.394,-2.3952,-2.3963,-2.4018,-2.4038,-2.3824,-2.3824,-2.3824,0,0,-2.3481,-2.3494,-2.3528,-2.3583,-2.36,-2.3653,-2.3583,-2.3642,-2.3681,-2.3628,-2.3705,-2.3712,-2.3738,-2.3831,-2.3873,-2.3841,-2.4023,-2.3964,-2.3974,-2.3978,-2.4029,-2.405,-2.4068,-2.383,-2.3829,-2.3828,0,0,-2.3616,-2.3632,-2.3705,-2.3723,-2.375,-2.3745,-2.3763,-2.3781,-2.3783,-2.3861,-2.3822,-2.3868,-2.3948,-2.3968,-2.3988,-2.4132,-2.4099,-2.4147,-2.4227,-2.4281,-2.4297,-2.4312,-2.4362,-2.4381,-2.4158,-2.4158,-2.4158,0,-2.3687,-2.3766,-2.3746,-2.3808,-2.3832,-2.3787,-2.386,-2.3879,-2.3918,-2.3936,-2.39,-2.4,-2.4014,-2.4111,-2.4146,-2.4165,-2.4183,-2.4143,-2.4297,-2.4311,-2.4325,-2.4372,-2.4391,-2.4164,-2.4163,-2.4162,-2.4162,0,-2.385,-2.3906,-2.3961,-2.4,-2.4031,-2.4099,-2.4088,-2.4122,-2.4104,-2.4103,-2.4182,-2.4198,-2.4243,-2.4265,-2.4247,-2.4359,-2.4339,-2.4301,-2.4236,-2.4351,-2.4395,-2.4413,-2.4171,-2.4169,-2.4168,-2.4166,0,0,-2.4035,-2.4063,-2.4083,-2.41,-2.4127,-2.4169,-2.4234,-2.4278,-2.4307,-2.4336,-2.439,-2.4459,-2.4424,-2.4447,-2.4432,-2.4479,-2.4591,-2.4435,-2.4435,-2.4462,-2.4714,-2.4741,-2.4762,-2.457,-2.4573,-2.4576,-2.4711,0,-2.4169,-2.4282,-2.4266,-2.4374,-2.4425,-2.4383,-2.444,-2.4462,-2.4463,-2.4506,-2.4507,-2.4556,-2.4506,-2.452,-2.4565,-2.4568,-2.4641,-2.4558,-2.4618,-2.4621,-2.4611,-2.4786,-2.4815,-2.4941,-2.4728,-2.4731,-2.4733,0,-2.4341,-2.4376,-2.449,-2.4508,-2.4528,-2.458,-2.4618,-2.466,-2.4684,-2.4682,-2.4708,-2.4684,-2.4749,-2.4685,-2.4773,-2.4718,-2.4742,-2.4747,-2.4751,-2.4755,-2.4683,-2.4792,-2.4981,-2.5,-2.476,-2.4758,-2.4756,0,-2.4462,-2.4539,-2.4616,-2.4632,-2.4656,-2.4692,-2.4704,-2.4725,-2.4752,-2.4786,-2.4803,-2.4845,-2.4867,-2.49,-2.4888,-2.4842,-2.4978,-2.4913,-2.4977,-2.4977,-2.5006,-2.5004,-2.52,-2.5025,-2.5024,-2.5024,-2.5024,0,-2.4613,-2.4684,-2.4671,-2.4718,-2.4796,-2.4777,-2.4855,-2.4861,-2.488,-2.4927,-2.4894,-2.494,-2.4922,-2.4966,-2.4957,-2.5031,-2.5042,-2.5041,-2.5037,-2.5043,-2.5043,-2.5057,-2.5047,-2.5029,-2.5028,-2.5027,-2.5026,0,-2.4761,-2.4756,-2.4837,-2.4853,-2.4859,-2.4915,-2.4928,-2.4973,-2.4972,-2.5032,-2.5045,-2.5044,-2.5094,-2.5085,-2.5141,-2.5135,-2.5227,-2.5214,-2.5219,-2.5215,-2.5279,-2.5272,-2.5489,-2.5516,-2.5325,-2.5327,-2.5328,0,-2.4857,-2.491,-2.4932,-2.4962,-2.4976,-2.5024,-2.5052,-2.5036,-2.5066,-2.5098,-2.5138,-2.5186,-2.5223,-2.5305,-2.5308,-2.5351,-2.5337,-2.541,-2.5343,-2.5347,-2.5336,-2.5333,-2.5337,-2.5423,-2.5425,-2.5427,-2.5428,0,-2.5027,-2.5021,-2.5063,-2.5104,-2.5138,-2.5169,-2.5197,-2.5223,-2.521,-2.5246,-2.5297,-2.5325,-2.5382,-2.543,-2.5469,-2.5481,-2.5452,-2.545,-2.5466,-2.5472,-2.5472,-2.5471,-2.5253,-2.5444,-2.5443,-2.5442,-2.5441,-2.544,-2.515,-2.5195,-2.5218,-2.5265,-2.5284,-2.5312,-2.5354,-2.5358,-2.5401,-2.5446,-2.5434,-2.5492,-2.5514,-2.5565,-2.5581,-2.5625,-2.5598,-2.5623,-2.5629,-2.5635,-2.5641,-2.5467,-2.5633,-2.5632,-2.5632,-2.5632,-2.5631,0,-2.5317,-2.5329,-2.5373,-2.5413,-2.5451,-2.5422,-2.5451,-2.5484,-2.5535,-2.5559,-2.5596,-2.5655,-2.5701,-2.5708,-2.5752,-2.5786,-2.5774,-2.5798,-2.5794,-2.5797,-2.5664,-2.5645,-2.5806,-2.5806,-2.5806,-2.5806,-2.5806,-2.5806,-2.5407,-2.5482,-2.548,-2.5563,-2.5575,-2.5632,-2.5651,-2.5675,-2.5694,-2.5761,-2.5799,-2.5804,-2.5821,-2.5866,-2.5906,-2.5907,-2.5924,-2.5953,-2.5948,-2.5824,-2.5806,-2.5789,-2.5771,-2.5957,-2.5957,-2.6077,-2.6078,-2.6079]},{"header":{"parameterUnit":"m.s-1","parameterCategory":1,"la1":30.2991,"la2":30.254,"lo1":-89.0895,"lo2":-89.0444,"dy":0.0017,"dx":0.0017,"nx":28,"ny":28,"refTime":"2025-12-15T09:00:00:Z","depth":0,"parameterNumber":3,"parameterNumberName":"V-component_of_WINDS"},"data":[0,0,0,0,0,0,0,0,0,0,0,0,0,0,0,0,0,0,0,0,0,0,0,0,0,0,0,0,0,0,0,0,0,0,0,0,0,0,0,0,0,0,0,0,0,0,0,0,0,0,0,0,0,0,0,0,0,0,-1.2812,-1.2813,0,-1.2872,-1.2873,-1.2874,-1.294,-1.2941,-1.2942,-1.2943,-1.3003,-1.3004,-1.3004,0,0,0,0,0,0,0,0,0,0,0,0,0,-1.2753,-1.2754,-1.2812,-1.2813,-1.2814,-1.2872,-1.2873,-1.2874,-1.294,-1.2941,-1.2942,-1.2943,-1.3003,-1.3004,-1.3004,0,0,0,0,0,0,0,0,0,0,0,0,0,-1.2792,-1.2754,-1.2812,-1.2854,-1.2858,-1.2872,-1.2873,-1.2874,-1.294,-1.2941,-1.2943,-1.2944,-1.3003,-1.3004,-1.3005,-1.2982,0,0,-1.3008,-1.3008,0,0,0,0,0,0,0,0,-1.279,-1.2794,-1.2847,-1.2851,-1.2856,-1.29,-1.2874,-1.291,-1.2939,-1.2909,-1.2943,-1.2945,-1.2968,-1.2972,-1.298,-1.2985,-1.2987,-1.3008,-1.3009,-1.3009,-1.3009,0,0,0,0,0,0,0,-1.2787,-1.2792,-1.2836,-1.2848,-1.2853,-1.2869,-1.2876,-1.2881,-1.2929,-1.2911,-1.2916,-1.2923,-1.297,-1.2978,-1.2982,-1.2988,-1.3008,-1.3009,-1.3009,-1.301,-1.2977,-1.2976,0,0,0,0,0,0,-1.2778,-1.2789,-1.2834,-1.2838,-1.2826,-1.2869,-1.2877,-1.2885,-1.2929,-1.2938,-1.2921,-1.2926,-1.2976,-1.298,-1.2984,-1.296,-1.3009,-1.301,-1.3011,-1.2979,-1.2977,-1.2975,0,0,0,0,0,0,-1.2777,-1.2782,-1.2832,-1.2815,-1.2823,-1.2868,-1.2876,-1.2885,-1.2893,-1.2937,-1.2946,-1.2921,-1.2977,-1.2982,-1.2982,-1.2963,-1.301,-1.3011,-1.298,-1.2978,-1.2976,-1.2911,0,0,0,0,0,0,-1.2775,-1.2781,-1.2773,-1.2814,-1.2823,-1.2829,-1.2875,-1.2885,-1.2895,-1.2901,-1.2939,-1.2947,-1.2979,-1.298,-1.2983,-1.2965,-1.3012,-1.2982,-1.2979,-1.2977,-1.2915,-1.2907,-1.29,0,0,0,0,0,-1.2773,-1.2752,-1.2772,-1.2777,-1.2815,-1.2828,-1.2833,-1.2871,-1.2893,-1.2885,-1.2913,-1.2945,-1.2965,-1.2979,-1.2983,-1.2965,-1.2984,-1.298,-1.2977,-1.2918,-1.2908,-1.29,0,0,0,0,0,0,-1.2707,-1.2758,-1.2781,-1.2774,-1.2796,-1.2839,-1.283,-1.2859,-1.2875,-1.288,-1.2926,-1.2934,-1.2927,-1.2947,-1.2962,-1.2945,-1.2979,-1.2976,-1.2933,-1.2924,-1.2916,-1.2911,-1.3013,0,0,0,0,0,-1.2692,-1.2698,-1.2743,-1.2732,-1.2742,-1.2784,-1.2791,-1.2819,-1.2843,-1.2853,-1.2881,-1.2903,-1.2914,-1.292,-1.2933,-1.2919,-1.2927,-1.2908,-1.29,-1.2894,-1.289,-1.2883,-1.2875,-1.2964,-1.2964,-1.2964,0,0,-1.266,-1.2689,-1.269,-1.2719,-1.274,-1.2745,-1.2791,-1.2795,-1.2799,-1.2853,-1.2854,-1.2875,-1.2903,-1.2895,-1.2893,-1.2911,-1.2868,-1.289,-1.2884,-1.2884,-1.2879,-1.287,-1.2863,-1.2962,-1.2962,-1.2963,0,0,-1.2604,-1.2628,-1.2621,-1.264,-1.267,-1.2699,-1.2697,-1.2736,-1.2752,-1.2754,-1.2794,-1.2799,-1.2818,-1.2835,-1.2847,-1.2798,-1.2827,-1.2801,-1.276,-1.2753,-1.2746,-1.274,-1.2721,-1.2714,-1.2798,-1.2798,-1.2798,0,-1.2561,-1.2571,-1.2613,-1.2614,-1.2625,-1.2675,-1.2668,-1.2685,-1.2717,-1.2723,-1.2743,-1.2767,-1.2789,-1.2786,-1.2774,-1.2782,-1.278,-1.2796,-1.2743,-1.2738,-1.2733,-1.2715,-1.2708,-1.2794,-1.2795,-1.2795,-1.2795,0,-1.2515,-1.2522,-1.2512,-1.2542,-1.2553,-1.255,-1.2591,-1.2596,-1.2623,-1.2649,-1.2649,-1.2678,-1.2697,-1.2698,-1.2724,-1.2698,-1.2708,-1.2735,-1.2769,-1.272,-1.2704,-1.2698,-1.2789,-1.279,-1.2791,-1.2792,0,0,-1.2419,-1.2473,-1.2469,-1.2483,-1.252,-1.2525,-1.2524,-1.2543,-1.2546,-1.2567,-1.2567,-1.2581,-1.2606,-1.2619,-1.2647,-1.2641,-1.2599,-1.2669,-1.267,-1.2653,-1.257,-1.2548,-1.254,-1.2619,-1.2618,-1.2617,-1.2567,0,-1.2369,-1.237,-1.2408,-1.2398,-1.2404,-1.2452,-1.2451,-1.2473,-1.2497,-1.2505,-1.2532,-1.254,-1.2573,-1.2581,-1.2577,-1.2605,-1.2582,-1.2609,-1.2618,-1.2617,-1.2607,-1.2532,-1.2509,-1.2461,-1.2561,-1.256,-1.256,0,-1.2311,-1.2328,-1.2319,-1.2356,-1.236,-1.2358,-1.2378,-1.2385,-1.2411,-1.2429,-1.2444,-1.2476,-1.2477,-1.251,-1.2511,-1.2528,-1.2535,-1.2548,-1.2548,-1.2548,-1.2584,-1.2529,-1.2446,-1.2438,-1.2551,-1.2551,-1.2552,0,-1.2239,-1.2261,-1.2258,-1.2269,-1.2312,-1.231,-1.2328,-1.2355,-1.2364,-1.2381,-1.2387,-1.2404,-1.2413,-1.2425,-1.2461,-1.2483,-1.2458,-1.2494,-1.2471,-1.247,-1.2463,-1.2462,-1.2378,-1.2469,-1.2469,-1.2469,-1.247,0,-1.2179,-1.2171,-1.2226,-1.2224,-1.2217,-1.226,-1.2251,-1.2274,-1.2298,-1.2301,-1.2343,-1.2345,-1.2393,-1.2399,-1.2428,-1.2423,-1.2428,-1.2441,-1.2448,-1.2436,-1.2434,-1.244,-1.2443,-1.2468,-1.2468,-1.2468,-1.2469,0,-1.2097,-1.2134,-1.2134,-1.2175,-1.2185,-1.2178,-1.2213,-1.2212,-1.2239,-1.2242,-1.2245,-1.2287,-1.2297,-1.2335,-1.2354,-1.2373,-1.2359,-1.2374,-1.235,-1.2354,-1.2329,-1.233,-1.2243,-1.2233,-1.2332,-1.2331,-1.233,0,-1.2055,-1.205,-1.2091,-1.2096,-1.2112,-1.2119,-1.2128,-1.2171,-1.2179,-1.2208,-1.2203,-1.2217,-1.223,-1.2244,-1.2275,-1.229,-1.2305,-1.2274,-1.2307,-1.2295,-1.2303,-1.2302,-1.2301,-1.2266,-1.2264,-1.2263,-1.2263,0,-1.1976,-1.1994,-1.2006,-1.2024,-1.2034,-1.205,-1.2068,-1.207,-1.2117,-1.2124,-1.2135,-1.2145,-1.2164,-1.2177,-1.2196,-1.2215,-1.2246,-1.2252,-1.2247,-1.2234,-1.2219,-1.2225,-1.2328,-1.2253,-1.2254,-1.2255,-1.2255,-1.2256,-1.1912,-1.1909,-1.1937,-1.1949,-1.1967,-1.1983,-1.1984,-1.2012,-1.2022,-1.2041,-1.2066,-1.2073,-1.2099,-1.2129,-1.2145,-1.2151,-1.2168,-1.2162,-1.216,-1.2157,-1.215,-1.222,-1.2155,-1.2155,-1.2155,-1.2156,-1.2156,0,-1.1834,-1.1854,-1.1864,-1.1889,-1.1897,-1.1927,-1.1949,-1.1954,-1.196,-1.1982,-1.1994,-1.2006,-1.2018,-1.2051,-1.2066,-1.2064,-1.2079,-1.2067,-1.2067,-1.207,-1.2135,-1.2136,-1.2055,-1.2055,-1.2055,-1.2055,-1.2055,-1.2055,-1.1794,-1.179,-1.1812,-1.1818,-1.1839,-1.1847,-1.1856,-1.1871,-1.1889,-1.19,-1.1911,-1.1933,-1.1958,-1.1976,-1.1988,-1.1997,-1.2,-1.1983,-1.1997,-1.2056,-1.2066,-1.2075,-1.2077,-1.1984,-1.1983,-1.1931,-1.1931,-1.1931]}]]